This demonstration page uses our WeatherBlox Daily Observations layout. Learn more.

39.92423, -83.80882

Hourly Observations for May 19, 2019

Temp ( °F °C ) Dew Point ( °F °C ) Humidity (%) Winds ( mph kmh ) Pressure ( in mb ) Visibility ( mi km ) Precip ( " mm )
12:56 am 00:56 Clear 73 22.8 64 17.8 74 74 S 9 15 29.87 1012 10 16.0934 0 0
1:56 am 01:56 Clear 72 22.2 64 17.8 76 76 S 7 11 29.87 1012 10 16.0934 0 0
2:56 am 02:56 Clear 71 21.7 64 17.8 79 79 S 7 11 29.85 1011 10 16.0934 0 0
3:56 am 03:56 Clear 69 20.6 64 17.8 84 84 S 9 15 29.85 1011 10 16.0934 0 0
4:56 am 04:56 Clear 69 20.6 63 17.2 81 81 SSW 6 9 29.86 1011 10 16.0934 0 0
5:56 am 05:56 Clear 69 20.6 63 17.2 81 81 S 9 15 29.85 1011 10 16.0934 0 0
6:56 am 06:56 Sunny 69 20.6 64 17.8 84 84 S 10 17 29.85 1011 10 16.0934 0 0
7:56 am 07:56 Sunny 70 21.1 64 17.8 82 82 S 10 17 29.84 1011 10 16.0934 0 0
8:56 am 08:56 Sunny 74 23.3 64 17.8 71 71 S 14 22 29.84 1011 10 16.0934 0 0
9:56 am 09:56 Sunny 75 23.9 65 18.3 71 71 S 12 19 29.84 1011 10 16.0934 0 0
10:56 am 10:56 Mostly Cloudy 77 25 64 17.8 64 64 SSW 22 35 29.84 1011 10 16.0934 0 0
11:56 am 11:56 Mostly Sunny 78 25.6 63 17.2 60 60 SSW 23 37 29.84 1010 10 16.0934 0 0
12:56 pm 12:56 Mostly Cloudy 79 26.1 58 14.4 49 49 SSW 24 39 29.83 1010 10 16.0934 0 0
1:56 pm 13:56 Cloudy 77 25 59 15 54 54 SSW 18 30 29.81 1010 10 16.0934 0 0
2:56 pm 14:56 Mostly Cloudy 76 24.4 59 15 56 56 S 16 26 29.8 1009 10 16.0934 0 0
3:56 pm 15:56 Cloudy with Light Rain 76 24.4 59 15 56 56 SSW 20 31 29.78 1009 10 16.0934 0 0.0254
4:56 pm 16:56 Cloudy 70 21.1 62 16.7 76 76 W 25 41 29.83 1010 10 16.0934 0 0.0254
5:19 pm 17:19 Cloudy with Light Rain 64 18 64 18 100 100 W 9 15 29.84 1010 6 9.65604 0.13 3.302
5:36 pm 17:36 Cloudy with Light Rain 64 18 64 18 100 100 W 7 11 29.84 1010 10 16.0934 0.13 3.302
5:45 pm 17:45 Cloudy with Light Rain 64 18 64 18 100 100 W 5 7 29.84 1010 10 16.0934 0.13 3.302
5:56 pm 17:56 Cloudy with Light Rain 64 17.8 64 17.8 100 100 SSW 3 6 29.85 1011 10 16.0934 0.13 3.302
6:31 pm 18:31 Mostly Cloudy 66 19 64 18 94 94 SSW 6 9 29.81 1009 10 16.0934 0 0.0254
6:56 pm 18:56 Mostly Sunny 68 20 65 18.3 90 90 SSW 12 19 29.8 1009 10 16.0934 0 0.0254
7:56 pm 19:56 Partly Cloudy 69 20.6 65 18.3 87 87 SSW 8 13 29.8 1009 10 16.0934 0 0
8:56 pm 20:56 Clear 67 19.4 64 17.8 91 91 SSW 10 17 29.78 1009 10 16.0934 0 0
9:56 pm 21:56 Mostly Cloudy with Light Rain 67 19.4 62 16.7 84 84 W 18 30 29.82 1010 10 16.0934 0 0.0254
10:03 pm 22:03 Mostly Cloudy 66 19 59 15 78 78 W 23 37 29.82 1010 10 16.0934 0 0.0254
10:56 pm 22:56 Cloudy with Rain 60 15.6 59 15 96 96 SW 12 19 29.85 1011 10 16.0934 0.04 1.016
11:56 pm 23:56 Cloudy 61 16.1 61 16.1 100 100 SW 9 15 29.84 1010 10 16.0934 0.05 1.27

Powered by AerisWeather